Rome, NY

4:28 AM EST on February 28, 2017 (GMT -0500)
Griffiss

Weather History for KRME - April, 2014

Change the Weather History Date:

Saturday, April 5, 2014

  Actual Average Record
Temperature  
Mean Temperature 36 °F -  
Max Temperature 39 °F 52 °F 71 °F (1985)
Min Temperature 33 °F 36 °F 6 °F (2016)
Degree Days  
Heating Degree Days 29    
Moisture  
Dew Point 29 °F    
Average Humidity 79    
Maximum Humidity 96    
Minimum Humidity 57    
Precipitation  
Precipitation 0.05 in - - ()
Sea Level Pressure  
Sea Level Pressure 29.87 in    
Wind  
Wind Speed 11 mph (West)    
Max Wind Speed 23 mph    
Max Gust Speed 32 mph    
Visibility 7 miles    
Events Fog , Rain , Snow    
Averages and records for this station are not official NWS values.
T = Trace of Precipitation, MM = Missing Value Source: NWS Daily Summary

Daily Weather History Graph

Daily Weather History Graph

Search for Another Location

Airport or City:

Trip Planner

Search our weather history database for the weather conditions in past years. The results will help you decide how hot, cold, wet, or windy it might be!

Date:

Astronomy

Apr. 05, 2014 Rise Set
Actual Time 6:36 AM EDT 7:32 PM EDT
Civil Twilight 6:07 AM EDT 8:01 PM EDT
Nautical Twilight 5:33 AM EDT 8:36 PM EDT
Astronomical Twilight 4:57 AM EDT 9:12 PM EDT
Moon 10:36 AM EDT (4/5) 12:46 AM EDT (4/5)
Length of Visible Light 13h 54m
Length of Day
12h 56m
Waxing Crescent, 34% of the Moon is Illuminated
Apr 5
Waxing Crescent
Apr 7
First Quarter
Apr 15
Full
Apr 22
Last Quarter
Apr 29
New

Hourly Weather History & Observations

Time (EDT) Temp. Windchill Dew Point Humidity Pressure Visibility Wind Dir Wind Speed Gust Speed Precip Events Conditions
12:53 AM 37.0 °F 31.0 °F 35.1 °F 93% 29.70 in 10.0 mi ESE 8.1 mph - N/A   Overcast
1:53 AM 37.0 °F 30.4 °F 35.1 °F 93% 29.70 in 10.0 mi ESE 9.2 mph - N/A   Overcast
2:53 AM 37.0 °F 34.5 °F 34.0 °F 89% 29.70 in 9.0 mi SE 3.5 mph - 0.00 in Rain Light Rain
3:41 AM 37.0 °F 34.5 °F 35.1 °F 93% 29.70 in 7.0 mi SSE 3.5 mph - 0.02 in Rain Light Rain
3:53 AM 37.0 °F - 35.1 °F 93% 29.72 in 5.0 mi Calm Calm - 0.02 in Rain Light Rain
4:26 AM 37.0 °F 34.5 °F 36.0 °F 96% 29.71 in 5.0 mi NW 3.5 mph - 0.01 in Rain Light Rain
4:53 AM 37.0 °F 34.5 °F 36.0 °F 96% 29.73 in 5.0 mi West 3.5 mph - 0.02 in Rain Light Rain
5:04 AM 37.0 °F - 36.0 °F 96% 29.71 in 6.0 mi Calm Calm - 0.00 in Rain Light Rain
5:53 AM 37.0 °F 34.5 °F 36.0 °F 96% 29.73 in 10.0 mi West 3.5 mph - 0.00 in   Overcast
6:53 AM 37.9 °F 32.1 °F 32.0 °F 79% 29.75 in 10.0 mi West 8.1 mph - N/A   Overcast
7:53 AM 39.0 °F 31.4 °F 30.0 °F 70% 29.78 in 10.0 mi West 12.7 mph 26.5 mph N/A   Overcast
8:53 AM 39.9 °F 32.9 °F 30.9 °F 70% 29.78 in 10.0 mi West 11.5 mph - N/A   Overcast
9:23 AM 39.0 °F 29.9 °F 30.9 °F 73% 29.78 in 10.0 mi WNW 17.3 mph - N/A   Overcast
9:42 AM 39.0 °F 30.3 °F 30.0 °F 70% 29.79 in 10.0 mi West 16.1 mph 29.9 mph N/A   Overcast
9:53 AM 39.0 °F 31.0 °F 28.9 °F 67% 29.80 in 10.0 mi West 13.8 mph 26.5 mph N/A   Overcast
10:53 AM 39.0 °F 30.3 °F 30.0 °F 70% 29.82 in 10.0 mi West 16.1 mph 24.2 mph N/A   Overcast
11:53 AM 36.0 °F 24.7 °F 30.0 °F 79% 29.84 in 6.0 mi WNW 21.9 mph 29.9 mph 0.00 in Snow Light Snow
11:58 AM 33.1 °F 20.9 °F 30.0 °F 89% 29.84 in 1.8 mi WNW 21.9 mph 29.9 mph 0.00 in Snow Light Snow
12:15 PM 33.1 °F 21.9 °F 30.0 °F 89% 29.85 in 0.8 mi WNW 18.4 mph 25.3 mph 0.00 in Snow Light Snow
12:29 PM 33.1 °F 21.9 °F 30.0 °F 89% 29.86 in 0.5 mi West 18.4 mph - 0.00 in Fog , Snow Snow
12:44 PM 33.1 °F 23.0 °F 30.9 °F 92% 29.86 in 1.2 mi West 15.0 mph 23.0 mph 0.01 in Snow Light Snow
12:50 PM 33.8 °F 24.3 °F 30.2 °F 87% 29.86 in 3.0 mi West 13.8 mph 23.0 mph 0.01 in Snow Light Snow
12:53 PM 34.0 °F 26.0 °F 30.9 °F 89% 29.87 in 4.0 mi West 10.4 mph 20.7 mph 0.01 in Snow Light Snow
1:01 PM 34.0 °F 25.0 °F 30.9 °F 89% 29.86 in 7.0 mi West 12.7 mph - 0.00 in Snow Light Snow
1:13 PM 34.0 °F 24.2 °F 30.0 °F 85% 29.87 in 4.0 mi West 15.0 mph 21.9 mph 0.00 in Snow Light Snow
1:22 PM 33.1 °F 23.0 °F 30.0 °F 89% 29.88 in 1.8 mi West 15.0 mph - 0.00 in Snow Light Snow
1:32 PM 36.0 °F 28.0 °F 33.1 °F 89% 29.87 in 3.0 mi West 11.5 mph 23.0 mph 0.00 in Snow Light Snow
1:48 PM 35.6 °F 24.0 °F 28.4 °F 75% 29.87 in 4.0 mi WNW 23.0 mph 27.6 mph 0.00 in Snow Light Snow
1:53 PM 35.1 °F 24.5 °F 28.9 °F 78% 29.88 in 3.0 mi WNW 18.4 mph 27.6 mph 0.00 in Snow Light Snow
2:21 PM 34.0 °F 22.1 °F 27.0 °F 75% 29.89 in 10.0 mi WNW 21.9 mph - 0.00 in   Overcast
2:53 PM 34.0 °F 23.4 °F 26.1 °F 73% 29.91 in 10.0 mi WNW 17.3 mph 24.2 mph 0.00 in   Overcast
3:22 PM 35.1 °F 24.5 °F 25.0 °F 67% 29.91 in 10.0 mi WNW 18.4 mph 28.8 mph N/A   Overcast
3:53 PM 35.1 °F 24.8 °F 25.0 °F 67% 29.93 in 10.0 mi WNW 17.3 mph 25.3 mph N/A   Overcast
4:53 PM 35.1 °F 23.5 °F 24.1 °F 64% 29.96 in 10.0 mi West 21.9 mph 32.2 mph N/A   Overcast
5:53 PM 36.0 °F 25.6 °F 21.9 °F 57% 29.98 in 10.0 mi WNW 18.4 mph 28.8 mph N/A   Overcast
6:53 PM 35.1 °F 25.5 °F 21.9 °F 59% 30.01 in 10.0 mi WNW 15.0 mph 24.2 mph N/A   Overcast
7:53 PM 34.0 °F 23.0 °F 23.0 °F 64% 30.04 in 10.0 mi West 18.4 mph 28.8 mph N/A   Overcast
8:53 PM 34.0 °F 23.8 °F 23.0 °F 64% 30.07 in 10.0 mi West 16.1 mph - N/A   Overcast
9:53 PM 34.0 °F 24.2 °F 23.0 °F 64% 30.09 in 10.0 mi WNW 15.0 mph 23.0 mph N/A   Overcast
10:53 PM 34.0 °F 22.1 °F 24.1 °F 67% 30.10 in 10.0 mi WNW 21.9 mph 28.8 mph N/A   Overcast
11:03 PM 34.0 °F 24.2 °F 24.1 °F 67% 30.09 in 10.0 mi WNW 15.0 mph 31.1 mph N/A   Overcast
11:39 PM 33.1 °F 22.6 °F 23.0 °F 66% 30.11 in 10.0 mi WNW 16.1 mph 27.6 mph N/A   Overcast
11:53 PM 33.1 °F 23.9 °F 23.0 °F 66% 30.12 in 10.0 mi WNW 12.7 mph - N/A   Overcast